Temp
29 27 26 26 27 28 29 28 28 29 29 29 29 28 27 25 25 28 28 28 29 27 26 27 25 24 24 25 25 24 25 25 25 26 26 26 27 28 28 28 29 29 29 29 29 28 28 28 28 27 27 27 27 27 27 26 26 26 26 25 25 25 25 25 25 25 25 25 25 25 25 24 24 24 24 24 24 24 24 24 24 24 24 24 24 24
28 26 26 27 28 29 29 29 29 29 29 29 28 27 27 26 26 29 29 28 29 27 25 26 25 24 25 25 24 24 24 25 25 25 26 26 27 27 27 28 29 29 29 29 29 28 28 28 28 27 27 27 27 27 27 26 26 26 26 25 25 25 25 25 25 25 25 25 25 25 25 25 25 25 24 24 24 24 24 25 24 24 24 24 24 24
26 25 27 28 28 29 29 29 29 29 29 29 28 27 25 26 27 28 28 28 29 27 25 26 25 24 25 25 24 25 25 25 25 25 25 26 26 26 27 28 28 29 29 29 29 28 28 28 28 27 27 27 27 27 27 26 26 26 26 26 25 25 25 25 25 25 25 25 25 26 25 26 25 25 25 25 24 24 24 24 24 24 24 24 24 24
24 25 28 29 28 29 28 29 29 29 29 29 28 26 24 27 26 24 26 28 29 28 26 26 25 24 25 24 24 24 25 25 24 24 24 25 26 26 26 27 27 28 28 29 29 29 28 28 28 27 27 27 27 27 26 26 26 26 26 26 25 25 25 25 25 25 25 25 25 26 25 26 26 25 25 25 25 24 24 24 24 24 24 24 24 24
25 27 29 29 28 29 28 28 29 27 27 28 29 27 26 28 27 25 27 28 29 27 27 26 23 23 24 24 24 24 23 24 23 23 23 23 25 25 25 26 26 27 28 29 29 29 28 28 27 27 27 27 26 27 26 26 26 26 26 26 25 25 25 25 25 25 25 25 25 26 25 25 26 26 25 25 24 24 24 24 24 24 24 24 24 24
27 28 29 28 28 28 28 28 29 28 26 26 29 30 29 30 29 28 28 27 25 23 26 26 22 21 24 24 24 23 23 23 23 24 24 23 24 25 25 26 26 26 26 28 29 29 28 28 27 27 27 27 26 26 27 27 26 26 26 26 25 25 25 25 25 25 25 25 25 26 25 25 25 25 25 25 25 24 24 24 24 24 24 24 24 24
28 29 29 29 28 28 28 28 29 30 26 24 29 32 32 32 30 28 28 26 22 22 26 28 23 21 22 23 24 23 23 24 23 24 24 23 24 24 25 25 25 26 26 27 28 28 28 28 27 27 27 27 26 26 27 27 26 26 26 25 25 25 25 25 25 25 25 25 25 26 26 25 25 25 25 25 25 25 24 24 24 24 24 24 24 24
29 29 29 29 29 28 27 27 29 31 26 25 31 33 32 32 30 29 28 25 24 25 26 28 26 22 21 23 25 23 23 24 24 24 24 24 24 24 25 25 25 25 26 26 27 28 28 28 27 27 27 27 27 27 27 26 26 26 26 26 25 25 25 25 25 25 25 25 25 25 26 26 25 25 25 25 25 25 24 24 24 24 24 24 24 24
30 29 29 29 28 28 28 28 30 31 28 29 33 33 32 32 31 30 29 26 26 25 22 24 26 22 21 23 25 24 23 24 24 24 24 24 24 24 24 24 25 25 25 26 27 27 28 28 27 27 27 27 27 27 27 27 26 26 26 26 25 25 25 25 25 25 25 25 25 25 26 26 26 26 25 25 25 24 24 24 24 24 24 24 24 24
30 30 30 30 28 28 29 31 31 31 30 32 33 33 33 33 32 31 29 26 25 24 21 23 25 23 21 22 23 23 23 23 24 24 25 24 24 24 24 24 25 25 25 25 26 25 26 28 28 27 27 27 27 27 27 27 27 26 26 25 25 25 25 25 25 25 25 25 25 26 26 26 26 26 26 25 25 24 24 24 24 24 24 24 24 24
29 30 31 30 30 30 31 31 32 31 32 32 33 33 32 32 32 31 29 26 23 22 22 23 25 24 22 22 23 23 24 25 24 24 25 25 25 24 25 25 25 25 25 25 25 25 26 28 28 28 27 27 27 27 27 27 27 26 26 25 25 25 25 25 25 25 25 25 26 26 26 26 26 26 25 25 25 25 24 24 24 24 24 24 24 24
29 30 30 31 32 32 32 32 32 32 32 32 32 31 28 27 27 26 26 25 22 21 23 24 25 24 22 22 24 25 27 27 26 25 25 25 25 25 25 25 25 25 25 25 25 25 25 26 27 28 27 27 27 27 27 26 26 26 26 25 25 25 25 25 25 25 25 25 26 26 26 26 26 26 25 25 25 25 25 25 25 25 24 24 24 24
28 30 30 31 32 33 32 30 31 31 32 32 30 27 24 22 23 22 22 23 22 22 24 26 26 23 22 24 26 27 28 28 27 26 26 25 25 25 25 25 25 25 25 25 25 25 25 24 26 27 28 27 27 27 27 26 26 26 26 26 25 25 25 25 25 25 25 25 26 26 26 26 26 26 26 25 25 25 25 25 25 25 25 25 25 24
25 29 30 30 31 32 32 29 27 28 30 30 28 25 23 22 22 22 22 22 22 23 25 27 26 22 23 25 26 27 28 28 28 27 26 26 25 25 25 25 26 25 25 25 25 25 25 24 25 26 27 27 27 27 27 26 26 26 26 26 25 25 25 25 25 25 25 25 25 25 25 25 26 26 26 26 26 26 26 25 25 25 25 25 25 25
22 24 28 29 29 31 33 31 29 29 30 30 30 28 24 23 22 22 22 22 22 23 24 25 24 22 22 24 25 27 29 29 28 28 27 27 26 26 26 26 26 25 25 25 25 25 25 25 25 26 27 27 27 27 27 26 26 26 25 25 25 25 25 25 25 25 25 25 25 25 25 25 26 26 26 26 26 26 26 26 25 25 25 25 25 25
21 22 27 29 30 31 32 32 33 31 28 29 31 29 25 25 25 23 23 23 23 23 23 22 22 22 23 25 25 27 29 29 28 28 27 27 27 26 26 26 26 25 25 25 25 25 25 25 25 25 26 26 27 27 27 26 26 25 25 25 26 26 25 25 25 25 25 25 25 25 25 25 26 26 26 26 26 26 26 26 26 25 25 25 25 25
21 23 28 29 30 32 31 31 33 30 28 28 28 26 27 31 29 23 22 24 23 22 22 21 21 22 24 25 25 27 28 28 28 28 28 27 27 27 27 26 26 25 25 25 25 25 24 24 24 25 26 26 26 27 27 26 25 25 25 25 25 25 25 25 25 25 25 25 25 25 25 25 26 26 26 26 26 26 26 26 26 25 25 25 25 25
23 23 27 29 29 31 31 31 32 32 31 28 25 27 30 31 30 26 22 22 23 22 21 21 21 21 22 23 25 26 27 27 27 28 27 27 27 26 26 26 26 25 25 25 25 24 24 23 23 24 25 26 26 26 26 26 26 25 25 25 25 25 25 25 25 25 25 25 25 25 25 25 25 26 26 26 26 26 26 26 25 25 25 25 25 25
24 22 25 28 28 29 31 30 29 31 33 30 28 31 30 25 25 24 23 22 22 21 21 21 21 21 21 22 23 25 25 25 26 27 26 26 25 25 24 24 24 24 24 24 24 24 23 23 23 23 23 24 24 24 23 24 25 25 25 25 25 25 25 25 25 25 25 25 25 25 25 25 25 26 26 26 26 26 26 26 25 25 25 25 25 25
26 23 23 27 28 28 30 28 26 27 31 32 31 31 30 26 24 24 24 23 22 21 21 21 20 21 22 22 23 23 23 23 24 25 25 24 24 24 24 24 23 23 23 23 23 23 22 22 22 22 22 22 23 22 22 23 24 25 25 24 24 24 25 25 25 25 25 25 25 25 25 25 25 25 26 26 26 26 26 26 25 25 25 25 26 26
26 23 21 25 27 26 26 27 26 26 28 29 27 27 27 27 27 26 25 24 23 21 21 21 21 21 22 22 22 22 22 22 22 23 23 23 23 23 23 23 23 23 23 23 23 23 22 21 21 22 22 22 22 23 23 23 24 25 25 24 24 24 24 24 24 24 24 25 24 24 25 25 25 25 25 26 26 26 26 26 25 25 25 25 26 26
24 23 22 22 24 24 25 27 28 28 28 28 27 26 27 27 25 24 23 23 23 22 21 21 21 21 22 22 22 21 21 22 22 22 23 23 23 23 22 23 23 22 23 23 23 22 21 21 21 21 21 21 22 23 23 23 24 23 24 24 24 25 25 24 24 24 24 24 24 24 25 25 25 25 25 25 25 25 26 25 26 26 26 26 26 26
24 23 22 22 23 24 26 28 28 28 29 30 29 29 29 28 25 22 22 23 22 22 22 21 20 21 21 21 21 21 21 21 21 22 22 22 22 22 22 22 22 22 22 22 22 21 21 20 20 21 21 21 21 22 23 23 22 22 22 23 23 24 24 24 24 24 24 24 24 24 25 25 25 25 25 25 25 25 25 25 26 26 26 26 26 26
24 23 22 22 23 25 27 28 28 28 29 28 29 30 30 28 27 25 24 24 22 21 22 21 20 21 21 21 21 21 21 22 22 22 22 21 21 22 21 21 21 21 21 21 21 21 20 20 20 20 20 20 21 21 21 21 21 21 22 23 23 23 24 24 24 24 24 24 24 24 24 25 25 25 25 25 25 25 25 25 26 26 26 26 26 26
23 23 22 21 22 23 24 25 25 26 27 26 27 29 30 29 29 28 26 25 23 21 22 21 20 21 21 21 21 21 21 22 22 22 22 21 21 21 21 21 21 21 21 21 21 21 20 20 20 20 20 20 20 20 21 20 21 22 22 22 22 23 23 23 23 23 24 24 24 24 24 24 24 25 25 25 25 25 25 25 26 26 26 26 26 27
23 23 23 21 20 21 21 21 22 23 25 25 26 28 29 29 29 27 24 23 22 21 22 21 20 20 21 21 21 21 22 22 22 22 22 21 21 21 21 21 21 21 21 21 21 21 20 20 20 20 19 19 20 20 20 20 21 21 22 22 22 21 21 22 22 23 23 24 24 24 24 24 24 24 24 25 25 25 25 25 26 26 26 26 26 27
24 24 23 22 21 21 21 22 24 24 24 24 25 27 28 29 28 26 24 22 22 21 21 21 21 20 20 21 21 21 22 22 21 22 22 21 21 21 21 21 21 21 21 21 21 20 20 20 20 20 19 19 20 20 20 20 20 21 21 21 21 21 21 22 22 22 22 23 24 24 24 24 24 24 24 24 25 25 25 25 26 26 26 26 27 27
24 22 23 23 22 23 24 24 25 25 24 24 24 25 27 28 28 26 23 23 23 22 21 21 21 20 20 21 21 21 22 22 22 22 22 21 21 21 21 21 21 21 20 21 21 20 20 20 20 20 20 19 19 19 20 20 20 20 21 21 21 21 21 22 22 22 22 23 23 24 24 24 24 25 25 25 25 25 25 25 25 26 26 26 27 27
23 22 23 23 23 24 25 25 26 25 25 26 25 25 26 27 27 26 24 24 24 23 21 21 21 21 21 21 22 21 22 22 22 22 22 22 22 21 21 21 21 21 20 20 20 20 21 20 20 20 20 20 20 19 19 19 19 20 20 21 21 21 21 21 21 22 22 23 23 24 24 24 24 25 25 24 25 25 25 25 25 25 26 26 27 27
23 22 24 24 23 24 24 24 25 25 25 26 26 25 26 27 27 26 25 25 24 23 22 21 21 21 21 22 22 22 22 23 22 22 23 22 22 22 21 21 21 21 21 21 20 20 20 20 20 20 20 20 20 20 19 19 19 19 19 19 20 20 21 21 21 22 22 22 23 23 24 24 24 24 24 24 25 25 25 25 25 25 25 26 26 27
23 22 23 23 22 23 24 24 24 25 25 25 24 25 26 26 26 25 24 24 23 22 22 22 21 20 21 22 22 23 23 23 23 22 22 22 22 22 21 21 21 21 21 21 21 21 20 20 20 20 20 20 20 20 20 19 19 19 19 19 19 19 20 20 21 21 21 21 22 22 23 23 24 24 24 24 24 25 25 25 25 25 25 25 26 27
23 22 23 23 21 21 23 23 23 24 25 24 23 24 25 25 25 24 24 24 22 21 21 21 20 20 21 22 22 23 23 23 22 22 21 21 21 21 21 21 21 20 20 20 21 21 21 20 20 20 20 20 20 20 20 20 20 19 19 19 19 19 19 19 20 20 20 20 21 21 21 22 23 23 23 23 23 24 24 24 25 25 25 25 26 26
22 22 22 22 20 21 22 22 22 24 23 22 22 24 25 25 26 25 24 24 23 23 22 21 20 20 21 22 22 22 22 22 21 21 21 21 21 20 20 20 20 20 20 20 20 20 20 20 20 20 20 20 20 20 20 20 20 19 19 19 18 18 19 19 19 19 19 19 20 20 21 21 22 22 22 22 22 23 23 24 24 25 25 26 26 26
22 22 21 21 21 20 21 22 22 22 21 21 24 25 25 25 25 24 24 23 23 23 23 21 21 21 22 22 22 22 22 21 21 21 21 20 20 20 20 20 20 20 20 20 20 19 19 20 20 20 21 21 21 21 20 20 20 20 20 19 19 18 19 19 19 19 19 19 19 19 20 20 21 21 21 21 21 22 22 23 23 24 24 25 25 25
21 21 21 21 21 21 21 22 21 20 21 23 24 25 25 25 24 23 23 23 22 22 22 21 21 21 21 21 21 21 21 21 21 21 21 21 20 20 20 20 20 21 20 21 20 19 19 20 21 20 21 21 21 21 20 20 20 20 20 20 19 19 19 19 19 19 19 19 19 19 19 20 20 20 21 21 21 21 21 21 22 22 23 23 23 24
22 21 21 21 21 21 21 21 20 21 22 24 24 24 25 25 24 23 22 21 21 21 21 20 20 20 20 19 20 20 21 21 21 21 21 21 21 20 20 20 21 21 20 20 20 19 19 20 21 21 21 21 21 21 21 20 20 20 20 20 20 19 19 19 19 19 19 19 19 19 19 20 20 20 20 21 21 21 21 21 21 21 22 22 22 23
22 21 21 20 20 20 20 20 21 21 22 22 23 24 24 24 24 23 21 19 19 19 20 20 19 19 20 20 20 20 21 21 21 21 21 21 20 20 20 20 20 20 20 20 19 19 20 20 20 21 21 20 21 21 21 21 20 20 20 20 20 20 19 19 19 19 19 19 19 19 19 19 20 20 20 20 20 20 20 21 21 21 21 21 22 22
22 21 21 20 20 20 20 20 21 20 20 21 22 23 23 23 24 24 21 19 20 19 19 19 19 19 19 19 19 20 20 20 20 20 20 20 20 20 20 19 20 20 19 19 19 19 20 20 20 20 20 20 20 20 21 21 20 20 20 20 20 20 19 19 19 19 19 19 19 20 20 19 20 20 19 19 20 20 20 20 21 21 21 21 21 22
22 21 21 20 20 20 20 20 20 20 20 21 22 23 23 22 24 24 21 20 21 20 18 18 18 19 19 19 19 20 20 19 19 20 20 20 20 20 19 19 19 19 19 18 18 18 19 19 19 19 19 19 19 19 20 20 20 20 19 19 19 19 19 19 19 19 19 19 19 19 20 20 20 20 19 19 20 20 20 20 20 21 21 21 21 22
21 21 21 20 20 20 20 20 20 20 21 21 22 22 22 22 24 23 20 20 21 21 19 19 19 19 19 19 19 20 20 19 19 19 19 19 19 19 18 18 17 18 18 18 18 18 19 18 18 18 18 18 18 19 19 19 19 19 19 19 19 19 19 19 19 19 19 19 19 20 20 20 20 20 20 20 20 20 20 20 20 20 20 21 21 21
21 20 20 20 20 20 20 20 20 20 21 22 21 21 22 23 23 22 20 20 21 20 20 21 21 20 20 20 20 20 20 20 19 19 19 19 18 18 18 17 17 17 17 17 18 18 18 18 17 17 17 17 18 18 18 19 19 18 18 19 18 18 18 18 19 19 19 19 19 19 20 20 20 20 20 20 20 20 20 20 20 20 20 21 21 21
20 20 20 19 20 20 20 20 19 20 21 22 22 22 23 23 22 20 20 20 20 20 21 21 21 21 20 20 20 19 19 19 19 18 18 18 18 17 17 17 17 17 17 17 17 18 18 17 17 17 17 17 17 17 17 18 18 18 18 18 17 17 18 18 18 18 19 19 19 19 20 20 20 20 20 20 20 20 20 20 20 20 20 20 21 21
20 20 20 20 20 20 20 20 19 20 21 21 22 22 22 21 21 20 20 20 20 20 20 20 20 20 20 19 19 19 19 18 18 18 18 17 17 17 16 16 16 16 17 17 17 17 17 17 16 16 16 16 16 17 17 17 17 17 17 17 17 17 17 17 18 18 18 18 18 19 19 19 19 19 20 20 20 20 20 20 20 20 21 21 20 20
20 20 20 20 20 20 19 19 19 20 20 20 21 22 21 20 21 21 20 20 20 20 19 19 19 19 19 19 19 19 18 18 17 17 17 17 17 16 15 15 15 16 16 17 16 16 17 16 16 16 16 16 16 16 16 16 16 16 16 16 16 17 17 17 17 17 17 17 17 18 18 18 19 19 19 19 20 20 20 20 20 21 21 21 21 20
21 21 20 20 20 20 20 20 20 20 19 20 21 21 20 20 21 20 20 20 20 19 19 19 19 19 19 19 18 18 18 17 17 17 17 17 17 16 15 15 16 16 16 16 16 16 16 16 16 15 15 15 15 15 16 16 16 16 16 16 16 16 16 16 16 16 16 16 17 17 17 17 18 18 19 19 19 19 20 20 20 20 20 21 20 20
20 20 20 21 21 20 20 20 20 19 19 20 20 20 20 21 20 19 19 19 19 18 19 19 19 19 19 19 19 18 18 17 17 17 17 17 16 15 15 16 16 16 16 16 16 16 16 15 15 15 15 15 15 15 15 15 15 15 16 16 16 16 16 16 16 16 16 16 16 16 16 17 17 17 18 18 18 19 19 19 20 20 20 20 20 20
19 19 20 20 20 20 20 20 19 19 19 20 21 21 21 21 20 19 19 18 18 18 18 19 18 18 18 18 18 18 17 17 17 16 16 16 15 14 15 15 16 16 16 16 15 15 15 15 15 15 15 15 15 15 15 15 15 15 15 15 15 15 15 15 15 15 15 15 16 16 16 16 16 16 17 17 18 18 18 19 19 19 20 20 20 20
19 20 20 19 19 20 19 18 18 19 19 19 20 20 20 20 19 19 19 19 19 19 18 17 17 18 18 17 17 17 17 17 16 16 16 15 14 14 14 15 15 15 15 15 15 15 15 15 15 15 15 15 14 14 14 14 14 14 14 15 15 15 15 15 15 15 15 15 15 15 15 15 15 16 16 16 17 17 17 18 18 19 19 19 19 19
19 19 19 18 19 19 18 18 18 19 19 19 18 19 19 19 19 19 19 19 19 19 19 18 17 17 17 17 16 17 17 16 15 16 16 15 13 13 14 14 15 15 15 15 15 15 15 15 15 14 14 14 14 14 14 14 14 14 14 14 14 15 15 15 15 15 15 15 15 15 15 15 15 15 15 15 16 16 17 17 17 17 18 19 19 19
19 19 18 18 18 18 17 17 18 18 19 18 17 17 17 18 18 18 18 19 20 20 19 19 17 17 17 16 16 16 18 17 15 15 15 14 13 13 14 14 15 15 15 15 15 15 15 14 14 14 14 13 13 14 14 14 14 14 14 14 14 14 14 14 14 15 15 15 15 15 15 15 15 15 15 15 15 16 16 17 17 17 17 18 18 19
18 18 18 18 18 18 17 17 17 18 18 17 17 17 17 17 17 18 18 18 19 19 18 19 19 18 17 17 16 17 16 16 15 14 14 13 14 14 15 15 15 15 15 15 15 14 14 14 13 13 13 13 13 13 13 13 13 13 13 14 14 14 14 14 14 14 14 14 15 15 15 15 15 15 15 15 15 15 15 15 16 17 17 18 18 18
Height
765 779 785 784 784 781 777 777 777 777 779 783 786 788 789 795 797 791 788 783 780 796 803 799 803 806 804 803 802 802 801 803 805 805 806 804 803 803 804 804 804 805 804 804 806 809 812 815 817 820 822 824 826 828 830 832 834 835 837 838 840 841 844 845 847 848 850 851 852 853 854 855 856 857 858 859 860 860 861 862 863 864 865 866 867 867
768 784 786 778 776 774 773 774 773 776 780 782 786 789 788 789 789 782 783 782 777 793 804 799 805 810 804 804 803 802 804 806 804 805 806 804 803 804 803 804 803 803 802 803 806 808 811 814 816 819 820 823 825 826 829 831 833 835 836 838 839 841 843 844 846 847 849 850 851 852 853 853 855 856 857 858 859 860 861 862 863 864 865 866 867 867
781 786 780 772 771 771 772 773 773 776 780 784 784 788 792 787 786 785 783 782 780 791 804 803 808 813 806 804 804 802 804 804 802 803 804 803 803 804 803 803 803 803 803 804 805 807 810 812 815 817 819 821 823 825 828 830 832 834 835 837 839 840 842 844 846 847 848 850 851 852 853 853 855 856 857 858 860 861 861 862 863 864 865 866 866 867
790 783 771 767 768 772 775 774 775 778 780 783 784 788 793 785 789 800 794 787 784 789 799 803 809 813 809 807 805 801 801 802 803 804 804 803 803 803 803 802 803 804 804 805 805 806 808 811 813 816 818 821 822 824 827 829 831 832 834 836 838 840 841 843 845 847 849 850 851 853 854 854 855 856 857 858 860 861 862 863 863 864 865 865 866 867
785 772 762 765 768 771 777 776 777 782 784 782 780 784 789 783 785 793 790 787 789 792 794 801 819 821 812 813 810 804 803 804 804 805 808 808 804 802 802 801 803 804 804 805 805 805 806 809 812 814 817 819 821 823 825 827 829 831 833 835 837 839 841 843 845 847 848 850 851 853 854 855 855 856 857 857 859 860 861 862 863 864 865 866 867 867
777 763 759 767 770 770 776 777 775 780 785 783 776 773 777 779 780 783 785 790 804 813 800 796 827 834 815 812 814 809 808 807 806 805 809 812 808 803 803 803 803 804 804 803 803 804 805 808 811 813 816 818 820 822 824 827 828 831 833 835 837 838 840 842 844 846 848 849 851 852 853 854 855 856 857 857 858 859 860 861 862 863 864 865 866 867
769 759 759 767 770 771 775 776 770 771 783 786 770 761 766 770 776 783 786 794 809 815 797 785 812 833 823 813 811 810 811 809 807 807 807 808 808 805 804 804 803 804 804 803 803 803 804 806 809 811 814 816 819 821 824 826 828 830 832 834 836 838 840 841 843 845 847 849 850 851 852 853 854 856 857 858 859 859 860 861 862 863 864 864 865 866
761 759 762 765 768 772 775 775 765 762 778 781 760 754 763 767 774 780 782 790 794 794 794 788 795 822 830 813 804 807 811 810 808 808 806 805 806 805 804 803 802 803 804 803 803 803 803 804 806 809 812 814 817 820 823 825 827 829 832 834 836 838 839 841 843 845 846 848 849 851 852 853 854 856 857 859 859 860 861 862 862 863 864 864 865 866
756 760 762 762 769 773 771 766 757 758 770 766 751 752 759 761 768 773 777 784 783 791 810 801 789 815 829 811 803 809 812 813 808 804 803 803 803 803 803 803 801 800 802 802 802 803 803 803 805 807 810 813 816 819 821 824 826 829 831 834 836 837 839 841 843 844 845 847 849 850 852 853 855 856 857 859 860 861 862 862 863 863 864 865 865 866
754 752 751 756 766 767 761 753 748 754 761 752 745 750 753 757 762 768 776 781 786 802 817 803 788 808 824 814 811 815 813 810 805 799 798 799 800 800 801 801 800 798 799 800 801 802 802 803 804 805 808 811 814 817 820 823 826 829 831 833 835 837 839 841 843 844 845 847 848 850 851 852 854 855 857 858 860 861 861 862 863 863 864 864 865 866
751 743 742 748 754 753 750 746 744 747 748 744 747 753 756 759 760 766 772 779 801 815 807 793 785 796 815 815 809 807 798 793 796 799 797 796 797 797 797 798 798 798 798 799 800 801 802 803 805 806 807 809 812 815 818 821 824 827 830 833 835 837 839 841 842 844 845 846 848 849 850 851 853 854 856 857 858 859 861 861 862 863 863 864 865 865
751 747 746 742 738 739 744 747 743 740 740 745 754 759 767 772 772 776 776 781 810 815 792 782 781 789 807 807 796 789 781 779 787 793 793 794 795 794 793 795 796 797 797 798 800 801 801 803 805 806 807 808 811 814 817 819 823 826 829 832 834 836 839 840 842 843 844 845 847 848 849 850 852 853 855 855 857 858 859 860 861 862 863 863 864 865
756 751 747 741 734 733 745 753 750 745 744 750 759 766 781 796 802 804 797 793 803 795 777 774 781 793 800 790 781 779 776 776 779 781 785 789 791 791 792 794 794 795 797 797 798 800 800 802 803 805 807 808 810 812 815 817 820 824 827 830 832 835 837 839 841 842 843 844 846 847 848 849 851 852 853 854 855 856 857 858 859 860 861 862 863 864
767 755 745 746 742 732 741 755 759 758 753 755 763 771 786 803 817 821 809 802 801 787 772 769 779 799 798 784 779 776 772 773 773 775 780 782 785 788 789 791 792 793 794 795 797 798 799 801 802 803 805 807 809 811 814 816 818 822 824 827 830 832 835 838 840 841 843 844 845 846 847 848 850 851 852 853 854 855 856 857 858 859 860 861 862 862
783 776 756 751 748 736 738 745 749 753 754 755 755 762 776 785 799 810 804 802 800 786 778 777 788 805 803 791 782 772 768 770 771 774 777 779 782 784 786 789 790 792 793 794 795 796 797 799 801 802 804 806 809 811 813 815 817 819 822 825 827 830 833 836 838 840 841 843 844 845 847 848 849 850 851 852 853 854 855 856 857 858 859 860 861 862
785 780 755 745 740 735 739 736 734 746 758 755 749 759 771 767 772 786 786 783 782 783 790 796 801 804 796 788 779 770 769 770 771 773 776 781 782 783 787 789 789 791 792 793 794 795 796 797 799 801 802 805 808 810 812 813 815 817 820 822 825 827 830 833 836 838 840 841 843 844 846 847 848 849 850 851 852 853 854 855 856 857 858 859 860 861
788 778 753 744 739 733 738 736 731 744 758 758 757 765 762 749 756 775 780 773 772 789 805 808 810 805 794 790 783 775 776 774 773 775 777 780 782 784 788 788 789 790 791 792 793 794 795 796 798 799 800 803 805 808 811 812 813 815 817 820 823 826 829 831 834 836 838 840 842 843 845 846 847 848 849 850 851 852 853 855 856 857 858 858 860 861
784 780 759 749 749 738 731 735 734 733 743 757 765 761 749 747 754 768 785 787 785 803 816 814 818 816 811 808 795 784 785 782 778 778 779 781 783 787 788 787 789 789 790 792 791 791 793 793 796 797 798 801 804 807 811 813 814 815 817 819 821 824 826 828 831 833 836 837 839 841 843 844 846 847 848 849 850 852 853 854 855 856 857 857 859 860
773 782 768 751 756 747 731 740 749 738 734 746 753 747 751 769 773 771 786 793 797 818 829 825 825 821 818 814 802 795 797 792 785 781 783 787 788 790 791 790 791 791 791 792 791 791 792 792 795 798 800 803 806 810 813 814 816 817 819 820 821 822 823 825 828 830 833 835 837 839 841 843 844 846 847 848 849 851 851 853 854 855 856 856 857 858
767 782 780 756 752 750 741 748 761 755 743 740 744 746 753 766 771 769 775 779 791 818 832 832 833 824 814 809 805 804 804 803 800 791 788 792 792 791 792 792 793 794 794 794 792 793 794 794 797 800 804 806 809 814 816 816 816 817 819 820 821 822 822 823 826 828 831 834 836 838 840 842 843 845 846 847 849 849 850 851 853 853 855 855 856 857
766 779 786 767 753 755 758 759 761 761 755 751 756 761 760 759 760 764 767 766 778 805 825 835 836 824 810 806 808 808 805 805 806 800 796 796 795 794 793 793 794 795 795 795 794 795 796 797 799 801 803 805 807 811 813 813 813 813 814 816 818 821 823 825 826 828 830 832 835 837 838 840 842 844 846 847 848 848 849 850 851 852 853 854 855 856
773 781 787 780 769 768 766 756 752 755 755 756 759 762 761 760 763 775 781 772 771 790 809 820 828 823 811 804 805 807 807 806 807 804 800 799 798 797 796 796 796 796 796 797 795 795 796 796 797 799 803 805 805 806 807 809 811 813 814 816 818 819 821 823 824 826 829 831 833 834 836 838 840 842 844 845 847 847 848 849 850 851 852 853 854 855
773 780 786 783 776 771 763 750 747 749 747 749 752 753 755 757 762 776 785 780 779 790 795 804 821 824 812 804 804 807 807 807 809 807 803 802 801 800 800 799 799 798 798 798 797 797 798 797 796 799 802 804 804 804 806 809 813 817 818 819 820 820 821 822 823 824 826 828 830 832 834 837 838 840 842 844 846 846 847 848 849 850 851 851 853 854
772 781 787 784 774 764 755 748 745 743 745 753 755 749 752 756 756 762 768 770 783 796 795 805 825 826 812 806 806 806 805 806 809 809 808 808 805 803 803 802 802 802 801 800 800 800 802 801 800 801 801 803 805 807 809 812 816 819 819 819 820 820 821 823 824 824 825 826 828 831 834 836 838 839 840 842 843 845 846 847 848 848 849 850 852 853
779 786 789 794 792 779 771 770 766 758 757 766 766 754 751 752 751 756 761 765 783 796 793 804 826 826 812 808 808 807 808 808 808 809 811 812 809 807 806 805 805 805 804 804 803 803 804 804 805 806 805 805 808 810 811 813 814 814 815 817 818 819 820 822 824 825 825 825 827 830 833 835 836 837 838 839 840 842 844 845 846 847 848 849 850 851
781 785 786 798 809 806 804 802 792 781 774 772 768 759 753 752 750 756 763 771 787 795 792 801 821 824 814 809 810 809 808 809 810 810 812 811 809 809 808 808 808 808 808 808 806 806 806 806 807 808 806 807 809 809 809 811 813 812 813 815 817 820 821 821 823 825 824 824 825 827 829 832 834 835 836 837 837 839 841 842 844 845 846 847 848 849
780 784 785 793 800 800 801 795 785 782 782 777 770 763 757 754 751 755 765 776 786 794 799 802 808 817 819 814 812 811 808 809 810 810 813 813 811 811 810 810 811 810 811 810 809 809 808 808 808 807 806 807 808 809 810 811 813 812 811 812 815 819 821 820 822 823 823 823 823 824 825 828 831 832 833 835 835 836 838 839 841 843 843 845 846 847
782 788 787 787 789 786 784 781 776 778 781 778 773 769 762 756 754 757 766 774 777 787 805 807 800 809 819 813 810 811 808 807 807 809 813 813 813 812 811 811 812 813 814 813 812 811 810 810 810 809 809 809 809 810 810 812 812 810 809 810 812 817 820 820 820 820 820 821 821 822 824 826 828 830 831 833 834 835 835 837 839 840 841 842 843 844
786 791 785 784 786 782 777 776 775 776 776 773 772 771 765 759 758 760 766 771 769 776 798 807 803 808 813 808 807 808 807 805 805 807 811 811 812 812 811 812 814 815 817 817 816 814 812 812 812 811 812 812 811 811 811 812 812 812 811 812 813 816 818 818 817 816 817 818 819 820 822 824 825 827 829 830 831 833 834 834 836 838 839 840 840 841
786 789 784 784 786 782 780 779 776 775 775 772 772 770 766 763 761 762 769 773 771 777 790 799 805 810 809 805 804 804 804 804 804 806 810 812 813 812 811 813 815 817 819 819 818 817 815 814 813 813 814 814 814 814 815 815 815 814 813 813 814 816 816 817 816 815 816 816 817 818 820 822 823 824 826 828 829 831 832 833 834 835 836 837 838 839
785 789 785 783 787 787 784 782 780 778 776 775 777 773 767 767 768 772 777 778 782 791 794 796 807 815 809 802 802 802 802 803 805 809 812 813 814 813 812 814 817 819 820 820 819 818 816 815 815 815 815 815 815 816 817 818 818 816 813 811 812 812 813 815 815 815 817 818 818 819 819 820 821 822 824 825 827 829 830 831 832 832 833 834 836 837
786 791 787 786 795 796 788 787 788 779 774 780 783 778 773 772 773 776 779 779 786 798 802 803 812 817 808 801 801 803 803 806 809 812 814 815 816 815 815 817 819 820 821 821 820 819 818 817 817 816 816 817 816 817 817 817 816 815 812 811 811 812 814 815 814 815 817 818 820 821 820 820 820 821 823 824 825 827 828 829 829 829 830 832 833 835
789 793 793 794 804 804 795 793 791 782 785 795 791 780 776 774 773 776 780 780 781 788 798 807 812 811 805 803 805 807 808 810 812 812 814 816 817 818 819 819 820 821 821 822 822 820 820 819 818 818 818 818 818 818 818 817 816 815 814 813 814 814 815 815 815 816 816 817 820 822 822 821 821 821 822 823 824 825 826 827 826 826 828 829 831 832
793 795 796 798 805 809 800 792 792 800 811 807 787 774 774 774 774 780 786 786 783 782 787 796 802 803 803 806 809 811 811 811 812 812 812 814 816 819 821 821 822 822 821 822 822 821 821 820 820 820 820 820 820 819 819 818 817 817 817 817 816 816 816 816 816 817 818 819 821 822 822 822 822 822 823 823 823 824 825 825 825 825 826 827 828 829
797 797 799 799 803 807 799 795 808 822 816 797 780 774 774 774 776 782 788 789 789 789 790 795 801 803 805 809 812 812 812 811 812 812 812 813 815 818 821 822 823 823 823 823 823 822 821 821 821 821 821 821 822 821 821 821 820 820 820 819 819 819 819 819 820 820 821 822 823 822 822 822 822 822 822 822 823 823 823 824 824 824 825 825 826 827
798 801 802 801 803 805 803 807 817 816 800 788 785 780 777 778 780 787 799 803 799 797 797 800 805 806 806 810 812 813 813 812 812 814 814 814 815 817 820 823 823 823 824 825 824 824 823 822 822 822 823 823 823 823 823 823 823 823 822 822 822 822 822 823 823 825 826 826 824 822 822 823 822 821 821 822 823 823 823 824 824 824 824 824 824 825
794 801 805 806 807 808 810 811 809 805 801 799 796 788 784 786 784 787 805 817 811 807 805 803 805 807 808 810 811 811 812 813 817 820 817 816 818 819 821 822 823 824 825 825 826 826 825 825 824 824 825 825 825 825 825 825 825 825 824 825 825 825 825 825 825 825 826 824 822 821 821 823 823 821 821 824 825 824 824 824 824 824 823 823 823 824
793 799 804 810 812 810 813 814 812 815 817 809 800 792 786 787 783 781 800 818 814 809 811 807 804 804 805 809 812 811 814 823 829 828 821 819 820 821 822 824 823 824 825 826 827 827 827 827 827 827 827 827 827 828 827 827 827 827 827 827 826 826 826 826 826 826 825 824 823 822 822 824 825 824 825 827 827 826 824 824 824 824 824 823 823 822
795 798 801 809 815 813 816 821 821 822 817 805 798 792 785 786 782 781 805 823 812 805 812 813 810 809 806 808 811 812 819 832 837 831 824 822 822 822 824 825 824 825 826 827 828 829 829 830 830 830 830 830 830 830 830 829 829 828 828 828 828 828 828 828 828 828 828 828 828 828 828 829 830 830 830 830 828 826 825 825 824 824 824 824 822 822
801 803 805 812 817 815 818 822 820 817 810 800 795 792 787 784 780 791 821 829 808 801 809 809 810 812 809 808 810 812 818 827 830 827 823 822 823 824 825 825 826 827 827 827 829 830 831 831 832 832 833 833 833 832 831 831 830 830 830 830 830 830 829 830 830 830 830 830 830 830 831 831 831 831 830 829 827 825 825 825 825 825 825 824 822 821
807 807 810 814 817 816 818 820 818 812 803 796 794 791 785 782 787 805 823 817 802 801 804 800 801 805 805 805 809 812 814 815 818 821 821 821 823 825 826 827 827 827 827 828 829 830 831 833 834 835 836 836 835 834 833 833 832 832 832 831 831 831 830 830 830 830 830 830 830 830 830 829 829 828 827 826 824 823 823 823 824 824 823 822 820 819
812 812 814 815 816 815 814 817 821 816 801 792 792 788 784 790 804 812 811 804 801 802 800 798 800 801 802 805 808 810 813 814 815 819 820 821 824 826 827 828 828 828 829 829 829 830 832 833 835 837 838 838 837 836 836 835 834 834 833 833 833 833 832 831 830 830 830 830 830 830 829 828 827 826 825 824 823 822 821 821 821 821 820 819 818 817
811 814 817 814 813 814 814 818 826 821 803 791 792 791 791 799 808 807 802 802 803 801 799 800 801 800 803 807 808 810 813 815 817 819 820 822 824 825 827 829 829 830 830 830 831 832 832 834 836 837 839 839 838 838 837 837 837 836 835 835 834 834 833 832 831 830 829 829 829 829 828 827 826 825 824 824 823 822 821 820 819 819 818 818 817 817
807 811 816 814 811 815 821 822 820 813 802 794 794 797 798 799 800 799 801 803 803 802 802 803 803 803 805 807 810 813 814 816 819 820 822 824 825 826 828 829 830 832 832 832 833 833 834 835 837 838 839 840 839 839 838 838 838 838 837 837 836 835 834 833 833 832 830 829 828 828 827 827 826 825 824 823 822 821 820 819 818 818 817 817 817 816
805 803 807 808 807 809 813 812 807 802 799 796 794 796 798 797 797 798 800 802 804 805 804 804 807 808 807 808 811 814 815 818 820 820 822 824 825 826 829 830 831 832 833 834 835 835 836 837 838 839 840 840 840 841 840 839 839 838 838 838 837 835 834 834 834 833 832 831 830 828 827 826 825 824 823 823 822 821 820 819 818 817 817 816 816 816
802 800 801 803 803 803 803 802 801 801 800 797 795 796 797 797 798 799 800 802 805 806 806 807 809 809 809 810 812 815 818 819 820 821 823 824 826 828 829 830 831 832 833 835 836 837 838 839 840 840 840 841 841 842 841 841 840 839 839 838 837 836 835 834 833 833 832 832 831 829 828 826 825 824 823 822 822 821 821 820 818 817 817 816 816 815
803 802 802 803 805 807 808 806 804 804 802 798 797 798 797 798 799 800 802 805 806 806 807 808 809 811 812 812 813 817 819 819 821 824 825 826 828 829 829 830 832 833 834 836 837 838 839 840 841 841 841 841 842 842 841 841 841 840 839 838 837 836 835 834 833 832 831 831 831 830 829 827 826 824 823 821 821 820 820 819 819 818 817 816 816 815
806 803 805 808 808 809 811 809 805 804 803 801 800 799 799 800 801 800 802 804 805 806 807 808 810 812 813 813 815 817 819 820 822 824 826 827 829 829 829 831 832 833 835 836 837 838 840 840 842 842 842 842 842 842 842 841 841 841 840 838 838 837 835 834 833 832 831 830 830 829 828 827 826 825 823 822 821 820 819 819 818 818 817 817 817 816
806 806 809 812 811 811 811 810 806 806 806 805 804 804 802 802 802 802 803 804 804 806 808 809 811 812 813 815 817 817 820 822 823 823 826 828 828 829 830 831 832 834 835 836 838 839 840 841 842 842 842 843 842 842 842 842 842 841 840 839 839 837 836 835 833 832 831 830 829 828 828 827 826 825 824 823 821 820 819 819 819 818 817 816 816 816
808 810 811 812 815 817 816 813 809 810 812 810 808 808 806 805 804 803 804 804 804 806 807 809 811 812 813 815 817 818 820 822 822 823 825 826 827 829 830 831 832 834 835 837 838 839 840 841 841 842 843 843 843 842 842 842 842 842 841 840 839 838 836 835 834 832 831 830 829 828 827 826 826 825 824 823 821 820 818 817 817 818 817 815 815 815
809 810 810 811 815 815 813 811 810 810 812 811 810 809 808 807 806 807 806 806 806 806 806 807 810 812 813 814 815 816 818 820 822 823 824 826 827 828 829 830 832 834 836 837 838 839 840 841 842 842 843 843 843 843 843 842 842 842 841 840 839 838 837 835 834 833 832 830 829 828 827 826 825 824 823 822 821 820 819 817 816 815 815 815 814 813
Wind_Speed
3 4 3 5 5 7 7 7 8 8 3 4 6 4 2 4 6 9 7 10 14 8 4 7 6 7 8 8 7 5 6 6 6 5 5 4 6 10 9 9 11 9 8 15 24 28 30 31 30 30 30 29 30 30 31 30 28 28 26 25 24 22 22 21 20 20 20 19 18 16 16 18 20 20 19 17 14 11 10 11 12 11 12 14 15 14
3 4 5 7 8 8 7 7 8 7 5 5 5 5 5 3 5 11 12 12 11 5 2 5 6 5 7 7 6 5 6 6 7 6 5 5 5 6 6 7 9 9 9 14 18 24 29 29 29 31 30 29 29 32 33 30 30 29 28 26 25 24 23 21 20 21 20 18 17 15 13 15 19 19 19 19 16 12 10 10 11 11 11 12 13 13
2 3 7 9 8 8 7 7 8 8 6 5 6 4 3 2 2 5 9 10 8 3 4 6 5 4 4 6 5 5 6 5 4 3 4 6 6 5 5 5 5 7 11 12 12 19 26 28 30 30 29 29 31 33 33 31 31 30 29 28 26 25 25 22 21 22 20 18 17 15 11 12 17 19 18 18 16 14 12 11 11 11 11 12 11 11
3 5 9 10 7 8 9 9 8 8 5 5 5 3 2 3 5 5 6 9 5 2 6 7 4 4 5 4 4 4 3 3 4 3 3 2 5 5 4 4 4 5 10 13 10 14 22 27 28 28 27 28 31 33 31 31 31 30 30 29 27 26 25 23 22 21 20 18 16 14 10 10 15 16 15 14 14 13 13 13 12 11 11 11 10 10
5 8 10 10 8 9 9 9 8 6 5 5 6 5 4 6 9 9 10 9 2 4 8 9 5 1 5 6 6 2 1 2 4 4 3 4 3 3 2 1 3 3 7 12 12 12 18 23 25 27 28 28 30 31 31 31 31 30 31 30 29 27 26 25 22 21 21 18 16 16 12 11 13 14 13 13 13 13 12 13 14 13 12 13 12 11
8 10 7 7 9 9 8 9 8 7 5 4 6 9 8 9 9 9 11 9 3 2 7 9 4 2 5 8 8 4 3 5 5 6 6 3 4 2 0 2 2 2 3 7 10 12 18 21 24 27 28 28 30 31 32 32 30 31 32 31 30 28 27 26 23 23 23 18 18 19 16 15 15 15 16 15 15 14 13 13 13 12 12 13 13 12
6 9 6 8 11 9 8 8 7 8 5 4 7 8 9 12 11 10 12 10 4 3 9 8 4 1 4 6 8 7 7 8 7 8 9 8 5 3 4 5 4 3 3 3 4 9 17 21 23 26 28 29 29 30 32 31 30 31 32 31 30 28 27 27 24 24 24 20 20 22 20 19 19 18 18 18 17 16 14 13 12 11 11 12 12 11
7 9 7 9 10 9 7 7 7 8 6 5 7 5 8 13 15 15 14 10 4 3 6 7 3 4 4 5 7 9 10 10 9 10 10 10 9 9 9 7 6 5 4 4 3 4 14 21 24 26 29 30 30 31 31 30 30 32 33 32 30 28 27 27 26 25 24 22 21 22 22 21 21 19 18 19 20 18 16 15 15 13 12 12 12 11
7 10 9 9 8 7 6 7 9 7 5 6 8 6 7 10 13 15 12 8 4 4 3 7 3 4 3 2 6 8 10 12 13 14 13 12 12 13 12 9 8 6 4 5 5 4 10 19 26 29 31 31 32 33 32 30 31 32 32 31 30 28 27 27 28 25 24 23 20 22 24 23 22 20 19 20 21 19 18 17 16 15 14 14 12 11
6 9 9 8 7 7 7 10 10 7 6 6 6 6 4 5 7 10 9 5 4 3 4 10 7 3 2 2 6 7 8 11 12 12 12 12 13 13 12 11 9 7 5 5 5 5 8 15 23 30 32 32 33 34 33 31 31 32 31 30 30 29 26 27 29 26 24 23 21 22 25 24 23 22 20 21 21 20 19 18 17 16 16 16 14 13
7 6 5 5 6 8 9 10 9 9 10 6 1 2 1 0 2 5 6 5 5 2 7 12 11 6 1 2 6 7 6 9 11 9 10 11 12 13 13 12 10 8 6 5 5 6 8 11 18 25 30 32 33 33 33 31 31 32 31 30 30 29 26 26 29 27 24 24 22 23 25 24 23 22 21 23 22 22 21 20 18 17 17 17 16 15
5 4 3 4 5 7 7 7 6 8 10 3 2 2 1 3 3 3 2 5 5 4 6 12 12 7 3 4 8 10 5 7 12 12 13 14 13 13 12 11 10 9 7 6 5 6 7 8 12 19 25 30 32 32 32 32 32 33 32 31 30 29 28 27 28 27 25 25 24 22 23 23 22 21 22 24 24 23 23 22 20 19 17 17 17 17
4 4 4 5 4 5 6 3 3 4 3 3 4 4 4 1 2 2 2 3 5 4 5 12 12 5 5 4 7 14 9 7 12 12 13 16 15 14 12 11 11 9 8 6 5 6 6 5 8 15 21 26 30 32 32 33 33 33 33 32 31 30 30 29 29 28 26 25 25 23 23 22 22 21 22 24 23 23 23 23 22 21 19 18 18 18
3 6 4 3 4 3 6 4 2 2 1 2 3 4 4 3 2 2 3 1 3 4 2 11 11 2 4 3 5 9 10 7 9 10 11 14 14 14 12 12 11 10 9 7 6 7 6 7 9 13 19 23 28 31 31 32 33 34 34 34 33 32 31 31 29 29 27 26 26 24 23 23 23 21 23 24 22 22 24 23 23 22 20 20 19 18
1 5 4 3 4 4 5 5 6 4 0 1 4 5 4 4 4 3 3 2 3 4 1 7 7 1 2 3 8 3 7 5 7 8 8 10 11 11 11 11 11 10 9 7 7 7 8 12 12 12 17 21 25 28 28 31 34 34 35 35 35 33 31 31 30 29 28 27 27 25 23 23 23 21 23 23 20 21 23 23 23 22 21 21 20 19
1 4 5 6 5 5 5 5 6 5 1 3 2 5 3 4 4 2 4 5 4 3 1 1 2 1 2 3 7 3 8 6 7 9 9 10 9 9 9 8 9 9 8 7 7 7 8 13 15 14 16 19 23 25 24 28 34 35 36 36 36 36 34 32 31 30 30 29 27 27 25 23 22 22 23 23 20 20 22 21 21 22 21 21 20 19
2 4 6 8 5 1 2 4 4 6 3 3 2 2 5 4 6 3 3 1 3 4 0 2 2 1 1 2 7 5 7 4 6 9 10 10 10 10 8 8 8 8 8 8 8 7 9 13 15 16 17 19 23 22 18 22 32 35 36 36 35 35 35 33 32 31 30 29 28 28 28 25 23 23 23 23 21 20 21 20 20 20 19 20 20 19
0 3 6 4 5 5 3 2 3 6 6 3 1 4 4 1 4 3 0 2 3 3 1 3 2 1 1 1 5 3 4 4 6 10 9 8 9 7 5 5 6 6 6 6 7 8 11 14 16 16 19 22 23 20 11 13 26 33 34 37 36 34 35 34 34 33 32 31 30 29 30 27 25 24 24 23 23 22 21 21 21 19 18 19 20 20
1 1 6 3 4 7 5 3 1 3 2 5 4 3 1 1 2 1 1 2 2 3 1 3 3 1 1 2 2 2 3 3 4 11 10 8 8 6 6 7 6 5 5 5 5 6 7 12 14 12 12 13 14 12 5 4 12 23 27 30 32 34 37 37 35 34 33 33 32 30 31 29 27 25 24 23 23 23 23 22 22 21 20 20 20 21
1 2 4 5 5 7 4 4 2 4 2 3 2 3 1 3 3 3 3 3 4 3 2 2 2 2 2 2 1 3 6 7 4 6 11 9 8 7 7 8 7 6 4 2 3 3 2 4 7 10 9 6 7 7 3 2 7 16 21 22 24 27 30 33 34 33 32 32 31 30 30 30 28 27 26 24 22 23 23 22 21 23 22 20 19 20
2 4 2 6 7 4 2 1 1 2 3 3 1 2 1 1 1 2 2 1 5 4 4 4 1 3 3 1 3 5 6 6 5 5 10 9 9 10 9 9 8 6 5 4 3 4 5 6 10 13 13 13 14 15 16 13 12 19 25 26 28 28 26 27 29 30 30 31 30 29 30 30 29 27 27 26 25 24 23 22 22 22 22 22 21 21
2 3 1 4 5 3 2 4 4 4 4 3 3 3 3 2 2 2 3 2 2 4 4 5 3 1 2 1 4 5 5 5 4 4 10 11 11 12 11 11 10 8 7 7 7 7 7 7 10 15 16 17 19 21 22 19 17 18 22 27 32 34 32 29 29 30 30 30 30 30 30 30 30 29 27 27 27 26 25 24 23 22 22 23 23 22
0 2 2 3 4 4 7 8 6 6 6 3 2 2 2 2 3 4 4 3 3 4 3 3 2 2 3 3 3 4 5 5 4 4 8 11 11 12 12 11 11 10 9 9 8 8 8 6 5 10 15 16 16 18 19 17 15 13 15 22 27 30 31 31 29 31 32 30 30 30 29 29 29 29 28 27 27 27 27 26 25 24 24 24 23 23
1 2 3 4 5 4 6 6 7 7 3 2 2 1 1 2 3 5 4 3 4 3 3 4 2 2 3 2 3 4 5 6 4 4 8 8 8 11 11 10 10 9 9 9 8 8 9 7 3 7 13 13 12 14 16 15 16 16 18 22 26 29 31 28 26 28 31 30 28 26 25 26 28 29 29 29 28 28 28 27 26 26 26 25 24 24
2 1 2 2 4 5 6 7 9 9 6 3 4 5 4 4 3 5 2 3 4 2 3 6 2 1 2 2 4 5 6 7 7 6 7 7 7 9 9 9 9 8 8 9 9 8 9 9 6 6 9 12 13 13 15 18 20 24 24 23 25 28 28 26 24 25 27 27 25 22 19 20 24 27 29 29 28 28 28 28 27 27 27 26 26 26
1 0 2 3 2 1 2 2 2 4 4 3 5 7 7 5 2 5 3 4 3 2 3 5 4 3 2 3 4 4 6 9 8 7 8 8 8 8 7 7 8 8 8 8 8 8 8 9 8 7 8 12 15 14 15 18 20 21 21 21 23 23 24 27 24 21 24 24 23 25 24 21 21 24 26 28 28 27 27 27 27 27 27 27 27 27
2 1 2 4 3 3 4 4 4 2 3 5 7 10 9 6 4 5 4 3 4 4 3 1 8 12 6 4 5 2 5 10 10 8 8 8 8 8 8 9 9 8 7 7 7 7 8 8 8 10 12 12 14 14 14 16 18 18 18 18 18 19 24 29 25 21 24 24 23 26 28 24 21 22 25 28 28 27 26 24 23 26 27 28 28 28
3 3 3 2 0 2 4 6 5 4 3 4 7 10 9 7 7 6 3 4 7 5 2 1 10 16 10 8 8 5 5 9 10 10 9 8 8 8 8 10 11 9 7 6 7 7 8 8 7 10 13 12 12 11 10 11 13 17 19 20 18 18 21 26 25 24 24 23 22 25 26 24 23 22 23 26 27 26 26 23 20 21 25 28 29 29
4 1 2 1 3 6 5 4 5 5 3 4 7 9 11 9 6 5 1 3 5 5 6 6 9 12 11 10 10 6 5 8 10 10 9 8 9 10 10 12 12 11 8 7 7 8 8 8 7 10 13 12 12 14 13 11 9 11 17 19 18 19 20 23 23 22 21 20 20 21 22 21 22 23 23 25 26 25 25 24 20 18 20 24 26 29
4 1 4 2 3 6 8 7 9 9 6 5 7 10 12 10 6 7 4 4 6 9 14 14 11 8 5 7 9 7 6 8 9 9 9 8 9 11 13 13 12 11 9 8 8 7 7 9 10 12 14 13 14 15 13 11 9 8 11 12 10 12 15 16 17 17 17 18 17 16 17 17 18 20 21 23 26 26 24 24 21 19 19 21 23 25
3 2 5 4 3 4 7 8 12 12 5 3 8 10 10 9 9 10 9 9 10 11 15 17 14 6 0 3 7 6 6 9 10 10 10 9 8 10 13 14 11 10 9 7 7 7 7 9 11 14 15 14 14 15 14 12 12 11 12 14 12 11 11 10 10 10 9 10 11 11 12 13 15 17 19 21 24 26 25 25 23 21 22 22 23 23
3 2 4 4 4 3 6 8 11 11 3 6 10 11 9 5 5 5 5 7 10 12 13 13 11 5 2 4 8 7 7 11 12 12 10 9 8 10 12 12 9 8 7 6 6 6 7 8 10 13 15 15 16 16 15 15 15 15 16 15 13 12 12 12 11 12 10 6 5 7 8 10 12 13 15 18 20 22 24 23 23 23 24 25 26 25
3 2 2 3 3 3 7 7 8 7 4 6 6 7 6 4 7 5 4 7 13 15 12 8 6 5 4 6 9 9 10 11 11 10 10 10 9 10 10 10 8 7 7 6 5 5 6 8 10 13 15 17 18 17 16 17 18 18 17 18 17 15 13 11 11 12 11 9 6 5 5 7 10 11 13 15 18 20 21 22 23 24 24 25 26 24
4 3 1 1 3 2 6 5 5 4 4 2 5 5 6 6 8 9 7 6 8 8 9 10 10 9 8 7 9 10 9 9 9 8 9 9 9 10 9 8 8 6 7 7 6 5 7 10 13 15 17 19 20 19 17 18 19 19 18 19 19 19 17 15 13 12 10 9 7 5 5 4 6 7 8 11 13 15 17 19 19 20 21 22 22 21
5 4 2 1 3 1 4 5 5 2 1 2 6 6 7 8 11 14 10 7 10 12 14 15 13 11 11 9 7 7 8 9 9 8 9 9 9 10 10 8 7 6 6 7 7 7 9 12 14 15 17 19 21 20 18 17 18 20 20 20 20 19 19 18 17 15 12 10 8 7 8 8 7 6 3 3 6 7 9 11 11 12 14 15 16 17
3 3 2 1 1 0 2 4 3 2 1 3 6 7 6 6 8 12 10 8 8 10 13 15 13 12 14 12 8 7 8 10 9 7 7 9 9 9 9 8 7 6 6 7 10 11 12 14 15 15 16 18 20 21 20 17 16 17 19 20 20 19 19 19 17 15 13 11 11 10 9 9 8 8 7 4 1 1 2 3 4 5 7 8 10 12
4 3 2 2 1 1 1 1 1 2 3 4 4 4 3 3 2 5 7 6 7 4 5 12 16 14 13 13 10 8 9 10 9 7 7 8 9 8 8 9 9 9 10 13 17 19 20 20 20 18 17 18 20 20 19 18 16 16 17 18 19 18 18 18 18 15 13 13 14 14 13 11 9 8 7 6 4 3 3 3 2 2 3 4 6 7
4 3 3 1 1 2 3 2 2 1 2 2 4 5 5 4 3 5 9 4 3 3 2 6 14 16 14 12 11 10 10 9 6 4 6 9 10 10 10 11 14 16 17 19 22 24 25 25 25 23 20 20 20 19 17 16 16 17 17 17 18 18 18 18 18 16 14 13 13 14 14 11 10 8 7 7 6 5 4 5 4 3 3 3 5 6
5 3 4 4 1 2 4 2 0 2 3 5 5 6 7 6 2 7 9 2 3 1 4 5 8 11 13 12 11 10 9 7 4 3 5 8 10 10 9 11 16 19 21 22 23 24 25 26 26 26 24 22 21 19 17 15 15 16 17 17 18 18 19 18 17 15 14 12 10 10 10 9 7 6 5 7 8 7 4 4 4 3 3 3 4 4
5 3 3 3 0 1 2 1 1 2 3 4 4 6 8 5 3 7 5 2 4 1 7 12 12 11 12 12 10 8 8 7 7 5 6 10 12 13 13 13 15 18 20 22 23 23 24 27 27 25 25 24 21 19 18 16 16 16 16 16 17 19 20 19 16 14 11 10 9 9 10 9 8 8 7 8 10 10 6 4 4 4 3 2 2 2
3 1 1 2 2 1 1 1 2 2 3 4 4 6 7 4 5 5 3 5 3 2 3 11 14 13 12 11 7 5 4 7 9 8 9 13 13 13 16 18 19 20 21 22 22 21 22 25 25 23 23 22 21 20 18 16 16 17 15 15 18 20 19 17 15 14 11 9 9 9 10 11 11 12 12 11 13 14 11 6 5 5 6 5 4 4
1 1 1 1 2 2 2 2 1 3 3 3 4 5 5 4 2 2 3 3 0 3 4 5 8 10 9 8 7 7 7 9 11 10 10 12 11 11 16 19 19 20 20 20 20 20 19 20 22 22 21 20 19 19 18 16 16 17 16 17 19 19 17 15 16 16 14 12 12 11 11 12 12 14 16 15 16 17 15 10 8 8 9 8 7 7
2 1 1 2 2 0 1 2 1 2 4 3 3 4 4 3 5 4 2 2 2 4 6 5 5 7 9 10 10 11 11 11 11 11 10 10 10 12 16 19 18 18 18 18 18 17 16 17 19 19 19 18 17 17 17 17 16 17 17 18 18 17 16 16 16 16 15 15 15 13 13 13 13 15 16 17 17 18 17 14 12 12 12 11 10 10
2 2 1 2 1 1 1 1 2 4 6 3 2 1 1 2 5 5 4 3 3 4 5 5 5 7 10 12 11 11 12 11 11 11 10 9 9 11 15 18 19 19 17 16 15 14 13 14 16 16 16 16 16 16 16 16 16 16 17 17 16 16 16 16 15 15 16 16 16 16 16 15 15 15 16 17 18 19 19 17 16 15 14 13 12 11
3 4 4 2 1 2 3 4 5 5 4 1 4 4 3 3 4 5 6 5 4 3 3 4 6 7 8 11 10 9 9 10 10 10 10 9 8 10 14 17 19 19 16 14 12 11 11 11 12 14 14 14 14 14 15 15 15 15 16 16 15 15 16 16 15 15 16 16 17 17 18 17 16 17 18 18 19 20 19 18 17 16 15 14 14 13
2 1 2 2 1 2 0 1 1 1 1 3 4 3 4 6 4 5 7 5 4 5 5 5 6 6 7 8 8 7 7 9 9 9 9 8 8 11 15 17 18 18 17 15 13 11 10 8 9 11 12 12 13 12 12 12 12 13 15 15 15 15 16 16 16 16 17 17 18 18 19 20 19 19 20 19 19 19 19 18 18 17 15 14 14 14
4 4 2 2 2 1 2 3 3 2 2 3 5 4 4 6 5 6 7 6 5 6 6 6 7 6 6 8 9 8 8 9 9 8 7 8 8 11 15 16 16 17 18 16 15 13 11 9 7 8 9 10 11 12 12 11 12 12 13 14 14 15 15 15 16 17 17 18 18 19 20 20 20 21 21 20 19 20 19 19 19 18 18 17 15 15
3 3 3 3 2 2 1 4 4 2 2 2 3 3 3 5 6 6 7 7 7 6 7 8 9 7 5 7 9 9 8 8 9 9 7 7 9 11 14 16 17 18 18 17 15 12 10 8 6 5 7 9 11 12 12 12 13 14 14 14 14 15 16 16 16 17 18 18 18 18 19 20 21 22 23 22 22 21 20 20 21 20 17 16 15 15
1 2 1 1 2 2 2 5 6 6 6 7 7 5 3 2 5 7 7 7 7 8 7 8 10 10 9 7 7 8 8 7 8 9 8 6 8 11 14 17 19 19 17 15 12 10 8 6 5 5 7 9 10 11 12 12 13 14 14 14 14 15 16 17 17 17 17 18 18 17 18 19 21 22 23 23 23 22 20 19 20 20 18 16 14 14
1 2 0 3 2 2 2 3 2 3 2 3 5 6 6 4 2 5 6 6 7 8 8 8 9 10 13 13 13 11 8 6 8 10 9 8 11 15 18 20 20 18 15 13 10 7 6 6 6 7 8 8 9 10 11 12 12 12 12 12 12 14 16 17 17 17 17 17 18 17 17 19 21 21 22 23 24 24 22 20 17 17 18 18 16 14
2 2 2 3 2 3 5 5 1 3 3 3 4 5 5 5 5 5 2 2 5 7 8 9 8 7 8 12 17 16 11 9 12 14 11 11 17 21 21 21 19 17 13 11 9 8 9 9 8 7 7 7 8 9 10 10 11 11 12 12 11 13 14 15 16 17 17 17 17 17 17 19 20 20 20 21 22 24 24 23 21 18 16 17 18 18
Wind_Direction
136 111 184 197 196 211 226 214 220 242 267 313 304 303 224 194 191 185 184 178 170 166 181 170 157 157 164 168 155 131 143 163 190 174 137 145 155 164 169 167 174 171 163 161 153 155 162 164 166 167 166 165 167 170 170 170 170 170 171 170 172 176 173 174 182 182 178 177 181 183 181 185 184 180 178 177 176 174 172 171 167 161 159 164 167 167
118 140 212 215 205 211 225 234 238 246 255 265 266 283 290 262 191 178 173 171 167 142 139 153 133 153 167 158 151 134 141 169 194 178 153 159 154 152 153 155 172 165 153 161 153 150 157 160 162 164 164 164 164 166 169 171 172 172 171 171 172 173 174 180 181 177 176 178 183 184 177 178 182 182 180 180 181 181 181 181 175 166 161 163 166 167
151 195 229 221 211 215 227 242 252 252 242 246 251 265 296 308 103 140 154 166 175 138 137 154 131 138 155 145 148 157 167 175 186 185 174 170 158 152 150 144 163 157 152 164 158 148 153 156 158 160 163 165 164 164 168 171 171 171 172 172 173 173 175 179 176 175 177 179 183 183 178 172 172 175 177 178 179 180 183 186 184 179 172 169 168 170
185 227 227 221 209 208 228 238 246 261 251 229 241 248 232 173 118 110 163 183 189 116 140 141 104 117 132 133 160 169 164 116 87 41 359 229 173 155 151 134 144 153 157 165 164 151 152 154 157 160 163 163 163 164 166 170 170 171 173 174 174 175 178 179 176 178 178 178 182 182 182 178 171 171 175 178 180 183 187 185 187 191 188 181 178 184
214 234 215 213 215 202 217 233 229 242 254 237 223 203 188 174 157 157 174 180 140 75 129 121 75 98 154 167 189 179 78 105 100 83 47 306 285 112 104 113 126 134 163 169 167 158 154 156 158 161 163 161 162 165 167 171 172 173 175 176 177 177 180 181 180 181 179 177 181 182 182 179 176 178 182 183 185 191 195 191 190 194 198 195 191 195
233 242 207 203 228 215 211 229 220 211 230 252 231 210 188 173 174 168 158 152 108 101 165 142 99 264 202 184 187 173 183 183 168 158 154 217 289 8 11 250 183 143 176 175 167 163 158 156 159 161 162 162 164 168 170 172 174 176 176 177 178 179 181 183 183 182 182 183 183 183 183 177 172 177 184 188 193 200 202 197 196 195 202 206 201 200
235 240 206 199 223 223 218 232 223 203 206 245 236 211 183 174 173 167 160 159 157 180 194 183 125 166 226 207 185 173 188 192 186 188 178 177 207 241 238 238 221 188 191 185 163 168 164 158 158 163 163 163 166 169 170 172 174 176 177 178 180 181 182 183 183 183 186 190 190 189 189 184 179 181 186 193 199 203 204 201 200 199 207 212 208 207
229 231 215 201 215 222 218 236 231 196 186 236 242 199 164 169 168 169 174 182 187 125 177 204 123 108 223 221 176 166 181 192 192 194 190 179 185 205 221 232 226 202 193 182 145 161 172 164 160 164 167 167 168 169 169 171 174 176 178 180 182 183 185 185 183 185 190 195 196 195 194 189 188 189 190 193 198 201 202 202 202 205 212 212 207 209
231 223 215 192 201 220 215 225 223 193 189 234 239 212 166 167 175 177 182 189 172 98 152 212 158 104 243 228 147 160 181 196 201 196 189 181 185 198 207 222 229 211 193 184 160 152 176 173 166 165 168 169 168 170 171 172 175 177 179 181 183 184 186 186 184 187 195 199 200 198 194 191 192 194 192 191 195 199 200 202 203 208 210 204 202 207
248 229 215 186 186 213 221 230 222 198 216 236 232 228 187 166 180 180 186 182 135 111 192 208 184 133 245 202 148 169 197 206 207 200 190 182 185 192 195 207 223 217 198 189 177 162 170 180 175 167 167 170 170 172 174 174 176 178 179 181 183 185 186 187 188 191 198 200 199 194 190 190 191 192 192 190 193 197 199 202 206 207 203 198 202 208
251 248 230 196 187 197 211 228 224 210 224 239 287 279 285 90 139 155 178 156 129 197 218 205 188 155 193 214 177 191 207 195 192 194 192 185 183 189 190 195 206 215 211 192 180 174 164 177 181 171 167 170 171 173 174 175 176 177 180 182 183 186 188 190 191 195 200 200 197 192 189 190 192 192 192 191 193 195 197 203 207 205 199 197 203 208
266 269 264 234 205 180 189 223 238 228 223 213 58 55 30 340 4 47 144 149 161 221 220 199 184 164 201 230 200 207 209 173 180 187 188 184 184 190 190 189 196 208 214 197 177 176 167 166 178 176 172 171 171 172 173 174 176 177 180 183 184 188 190 192 195 198 201 200 199 197 194 195 196 196 196 195 197 198 200 205 206 202 200 202 205 209
297 259 249 257 241 164 152 201 278 280 230 128 77 71 85 350 353 4 244 180 189 236 212 181 169 171 233 246 214 208 198 172 182 186 183 181 183 189 188 187 194 198 202 202 183 170 173 172 174 177 176 173 172 173 174 175 176 177 180 183 185 188 191 194 197 200 201 201 201 201 199 197 196 199 202 201 202 203 203 204 203 199 201 205 208 211
324 290 273 266 273 178 150 171 204 260 290 128 141 117 118 149 136 227 245 171 194 250 191 157 158 199 252 312 304 213 186 172 178 177 175 178 182 184 183 185 189 190 190 196 188 170 174 185 181 176 176 176 177 176 175 175 176 178 181 184 186 187 190 194 197 200 201 202 203 203 200 197 197 201 203 203 205 206 204 204 204 202 202 206 210 212
290 294 279 249 246 187 161 175 166 160 238 206 174 141 138 167 155 190 214 158 195 227 87 135 156 238 204 281 316 230 158 148 156 157 162 171 179 179 180 183 182 187 189 186 184 177 180 187 184 179 175 174 177 178 176 175 177 178 181 185 187 186 188 193 197 199 202 203 204 203 200 198 201 202 200 202 206 205 204 204 205 206 207 209 211 213
318 262 279 299 267 173 167 202 151 115 293 262 149 120 155 191 159 170 204 178 169 168 48 92 147 2 187 262 321 66 118 127 145 147 153 164 172 171 176 184 179 185 187 180 183 178 177 184 184 185 182 173 172 175 178 179 178 180 183 186 189 189 189 192 195 199 201 203 204 204 202 203 205 203 199 202 204 200 201 203 204 208 211 213 215 215
5 274 294 318 318 103 152 231 163 126 175 277 29 164 217 187 136 135 250 244 108 130 73 17 93 66 168 302 340 51 109 127 147 146 152 161 166 170 176 181 181 184 181 177 180 173 171 177 179 184 187 181 171 167 173 184 183 182 184 186 188 189 190 192 196 198 200 201 203 205 205 206 208 205 204 204 204 201 201 203 205 209 213 215 217 217
107 275 289 315 339 333 329 272 197 159 154 148 254 241 239 168 119 114 202 341 60 125 69 14 61 68 101 328 327 11 106 123 135 132 137 144 145 151 148 146 161 166 162 166 171 173 173 174 176 181 187 190 180 166 155 178 188 188 186 186 187 187 188 193 196 198 200 201 203 205 206 206 207 207 208 207 207 205 204 206 209 211 215 216 217 219
117 322 286 322 360 309 319 61 190 251 158 150 196 239 152 166 226 137 168 194 105 121 98 15 353 347 122 208 285 356 32 23 112 119 111 104 105 101 89 88 87 93 117 154 168 170 173 176 176 167 169 182 174 157 105 80 178 190 191 188 187 188 190 193 196 197 200 202 203 205 206 207 208 208 209 210 209 209 209 211 213 213 217 219 219 219
27 89 274 309 346 310 327 69 160 261 245 178 277 315 110 166 197 163 181 178 127 138 144 67 355 274 240 246 309 35 17 355 351 91 94 86 80 80 82 84 78 75 88 138 155 129 110 138 134 109 106 130 134 138 156 92 150 178 187 189 189 191 193 192 193 196 199 201 203 205 206 208 210 210 211 212 211 210 212 214 215 214 218 222 222 219
4 75 286 309 341 339 356 57 205 220 200 193 293 300 253 265 237 179 218 168 123 139 143 124 190 263 268 261 57 42 37 17 350 55 77 72 69 70 68 75 79 75 69 56 69 87 75 92 127 139 141 149 161 183 198 196 183 183 185 187 190 193 192 191 193 195 198 200 202 204 206 209 212 213 213 214 214 213 213 216 218 216 217 221 225 223
1 56 340 312 337 338 285 287 285 262 237 193 156 205 222 208 169 176 271 301 84 120 144 150 173 250 329 62 92 66 46 30 353 47 77 72 68 69 66 68 68 64 60 51 55 82 98 114 148 159 147 144 164 187 197 196 190 186 183 185 191 193 192 190 193 196 198 200 202 204 207 209 212 214 215 217 218 217 216 217 219 220 219 222 225 226
294 84 31 304 288 269 269 284 294 272 252 210 161 191 198 168 140 149 214 250 57 81 109 102 109 107 47 39 96 87 56 42 359 13 69 72 68 69 68 66 64 59 54 48 47 66 96 127 154 142 136 143 158 172 183 182 170 165 173 182 189 193 192 190 191 194 196 198 201 204 208 210 212 214 215 217 220 221 221 221 221 223 224 226 226 225
325 67 29 310 292 298 297 319 350 353 11 36 340 349 22 259 173 145 178 174 104 102 113 85 67 126 89 65 113 102 72 79 78 52 62 66 65 69 69 65 64 61 55 54 50 54 80 104 117 113 123 132 137 150 159 149 147 168 184 187 190 192 191 191 191 192 193 195 196 197 202 207 212 214 215 217 219 222 223 224 225 226 227 229 229 228
341 18 56 15 344 346 349 0 2 359 18 23 309 328 335 287 166 131 100 71 94 179 151 119 124 155 86 88 119 119 110 106 100 91 92 88 76 73 71 68 68 63 54 55 57 58 74 94 107 117 121 123 130 150 155 144 158 183 189 186 189 191 192 195 197 195 192 191 190 188 189 199 207 212 213 214 216 220 223 226 229 230 229 231 231 232
101 191 113 101 81 50 23 4 332 330 341 315 308 336 338 326 86 125 109 66 98 168 124 116 133 115 80 93 102 111 123 117 107 97 98 97 91 84 75 70 69 66 59 56 59 61 66 79 92 97 96 110 129 155 168 155 162 183 190 187 187 189 196 200 202 203 200 195 192 192 193 198 204 207 209 211 212 214 220 225 230 232 230 231 233 234
113 32 79 122 155 168 183 220 229 264 303 306 331 347 341 339 51 99 107 107 146 131 61 86 142 131 137 144 124 127 132 125 123 115 106 101 95 92 86 80 73 68 62 58 63 68 68 67 73 74 74 94 127 153 166 159 161 178 193 199 193 192 201 203 203 209 209 204 202 199 198 202 207 206 208 211 211 212 214 218 227 231 229 229 232 234
85 17 25 92 261 249 219 234 261 291 288 310 343 350 346 359 45 56 68 147 148 120 54 224 142 135 152 160 149 173 165 131 125 118 116 116 109 105 100 91 83 74 64 57 62 68 73 71 65 68 71 85 109 118 122 134 156 176 187 197 199 194 198 201 201 206 208 207 208 206 205 211 216 216 215 213 212 212 212 211 217 226 225 225 228 231
101 358 312 42 352 330 317 302 318 326 322 343 357 360 354 2 59 83 90 149 139 127 141 153 135 132 147 153 155 176 162 126 120 117 120 125 119 112 103 94 88 81 72 62 60 59 68 74 67 64 66 70 80 83 87 102 124 155 168 182 194 193 193 196 195 196 199 202 204 207 210 216 221 225 226 220 216 215 214 211 213 222 226 225 226 229
111 322 319 37 23 340 345 350 343 339 339 351 1 8 4 7 64 90 77 84 92 114 128 126 113 108 129 157 162 165 144 126 121 118 117 111 109 107 99 94 91 87 80 71 67 64 67 73 71 68 68 67 70 74 78 84 83 96 119 131 151 171 180 186 191 194 198 202 203 204 209 214 220 226 228 225 224 224 223 222 222 225 230 229 227 228
64 333 324 34 59 340 348 357 344 333 327 16 10 7 8 17 50 72 85 88 85 101 120 120 114 104 341 157 139 141 141 129 118 114 110 102 99 99 95 92 88 87 84 75 73 74 69 69 69 67 67 67 68 71 73 73 70 68 79 91 106 122 126 135 158 174 186 203 212 209 205 206 213 222 226 226 227 229 229 232 234 236 239 238 233 231
23 340 333 42 64 336 336 355 343 327 341 54 19 357 359 29 75 89 108 117 113 116 119 116 115 126 197 137 116 121 133 125 119 116 111 104 99 93 92 92 88 84 82 74 69 71 70 71 70 65 63 63 64 67 69 69 67 61 61 70 87 110 114 106 108 116 121 141 187 204 208 207 210 219 226 227 228 229 229 233 236 239 242 241 237 237
1 27 9 47 72 320 319 342 345 340 28 46 352 332 0 72 127 107 81 124 134 134 133 130 127 134 135 118 116 122 123 119 120 120 116 112 105 96 93 92 87 81 78 72 65 66 72 79 78 72 66 60 60 69 76 73 69 64 62 65 74 90 103 97 91 98 99 96 115 152 184 203 210 218 226 230 231 230 229 230 231 232 235 236 237 241
1 49 34 46 100 286 305 338 15 25 50 1 298 321 20 55 108 100 91 118 121 113 118 122 123 121 112 105 113 119 118 118 121 121 120 120 112 105 101 94 89 80 69 63 56 52 65 81 86 83 75 67 64 72 82 80 74 70 68 68 70 75 80 79 76 75 72 71 80 84 85 122 166 192 213 223 227 228 229 230 232 231 232 233 235 240
14 24 356 23 110 215 318 23 52 70 130 316 323 354 27 45 78 83 75 82 94 99 108 113 118 118 107 91 82 91 100 104 107 108 114 117 115 113 110 103 94 83 70 63 54 46 55 72 83 86 82 76 71 71 78 82 78 73 68 66 68 69 71 73 72 68 63 62 65 60 56 65 81 93 112 186 214 224 230 234 240 240 238 236 236 239
61 21 1 30 94 312 12 61 108 206 266 360 351 359 18 33 68 77 59 41 72 104 115 115 116 115 111 105 97 95 99 96 90 89 97 106 113 116 116 113 106 93 81 72 59 52 52 60 73 84 84 80 76 72 71 75 78 75 69 65 65 65 66 67 68 68 65 60 59 61 55 48 51 57 53 46 47 209 215 232 245 247 243 241 242 243
101 70 37 12 2 53 72 74 215 280 334 1 349 336 344 330 345 96 91 40 14 26 105 120 121 118 114 116 118 112 100 90 81 68 73 90 99 102 103 105 102 88 74 67 60 56 56 57 65 79 82 75 71 70 68 68 70 71 68 64 61 59 59 56 53 53 54 50 46 46 44 37 34 38 35 21 15 32 31 12 343 305 269 248 242 242
91 105 114 98 356 50 79 39 4 329 281 282 285 294 309 316 328 94 101 75 346 345 32 119 127 125 122 122 121 111 91 84 87 79 77 85 89 89 89 86 83 77 69 64 59 55 54 54 58 68 73 68 64 64 64 64 61 60 61 58 54 51 49 46 41 39 40 40 37 36 36 29 21 20 8 348 352 15 11 357 351 334 309 279 259 252
52 60 91 92 11 21 81 78 357 195 220 244 258 286 309 318 356 85 89 64 290 90 101 122 128 127 131 133 129 121 107 106 134 140 103 96 90 86 84 75 73 72 67 64 62 57 53 52 53 58 60 56 53 52 55 59 55 50 49 49 46 41 36 31 28 26 28 32 35 33 29 20 10 4 344 329 344 11 15 350 351 351 328 300 280 269
33 27 47 67 357 358 90 117 258 211 227 260 272 286 297 310 48 80 95 221 274 257 166 163 155 147 148 144 135 135 141 146 155 155 127 109 94 83 80 75 71 68 63 59 60 59 55 52 50 50 47 43 41 41 44 47 47 45 44 43 38 30 23 20 17 14 16 24 27 20 13 9 359 344 335 329 338 353 1 351 344 348 340 320 300 286
15 24 63 122 171 210 153 179 268 261 241 251 272 290 305 352 64 85 162 218 266 324 195 169 156 152 153 148 139 141 146 136 136 137 122 108 97 87 83 80 75 71 65 59 56 56 55 51 48 45 41 38 38 38 37 37 38 39 38 36 30 22 16 15 15 15 16 19 17 5 358 1 360 352 348 343 339 338 337 335 332 333 335 333 321 309
341 347 341 157 174 205 171 151 319 290 259 247 264 300 354 42 106 189 201 220 236 66 86 130 144 145 140 132 125 121 118 116 117 118 110 103 102 96 89 84 77 71 66 60 53 49 46 43 43 42 38 33 33 34 33 34 35 32 29 26 24 20 13 7 6 8 10 11 9 1 354 353 353 351 350 348 345 341 336 328 323 326 331 331 325 319
182 164 302 245 212 209 114 101 81 250 263 291 314 329 18 89 184 203 140 79 43 66 76 87 112 124 122 120 120 119 118 115 112 110 105 101 101 99 95 92 87 77 68 60 53 46 41 38 35 35 32 28 27 27 26 28 29 28 25 20 17 14 9 3 359 358 358 359 359 357 355 350 344 342 342 345 349 349 342 333 325 325 327 324 322 321
221 172 205 264 273 55 84 190 200 222 256 293 84 148 275 148 168 167 125 89 58 55 65 74 82 101 118 122 122 121 118 117 116 115 112 109 107 104 101 100 97 90 78 67 56 47 42 36 29 26 25 23 22 20 17 17 17 17 18 14 7 3 1 0 0 359 356 355 354 352 351 347 340 338 341 347 350 349 347 341 332 326 323 321 321 320
247 198 164 177 235 179 171 207 217 223 250 340 98 138 147 103 113 128 118 100 83 74 74 85 91 100 113 118 122 123 121 122 124 123 121 122 121 113 110 108 105 100 93 84 74 59 47 36 24 18 17 17 17 14 10 10 7 5 6 7 2 359 358 356 359 1 360 356 352 351 351 350 346 346 349 353 355 356 358 358 349 339 330 323 321 319
277 298 125 127 287 288 119 115 212 220 176 103 93 108 111 99 95 102 97 89 94 102 101 102 108 116 122 119 116 115 119 125 125 123 125 125 121 118 118 115 112 111 107 103 98 87 73 56 27 13 10 9 9 7 3 3 2 357 354 355 356 356 354 352 354 357 357 354 349 346 350 353 354 353 353 356 359 1 4 5 3 1 355 344 339 336
349 13 46 46 7 7 9 354 344 297 245 135 110 91 80 87 94 101 103 108 112 108 106 106 104 108 120 124 122 122 129 131 125 120 123 124 124 128 127 122 120 118 115 111 108 102 94 80 48 18 1 353 356 2 3 4 5 2 356 352 353 353 349 348 349 349 347 348 347 346 348 351 353 351 350 352 356 357 358 357 356 355 356 356 355 350
335 12 27 7 1 126 197 306 323 337 324 7 77 93 101 107 111 111 116 126 123 109 104 108 109 108 111 120 126 128 129 129 127 127 130 134 138 138 133 127 123 117 112 109 107 100 93 85 64 19 349 349 2 11 11 7 5 3 359 354 351 349 347 346 346 344 341 341 343 346 349 350 349 348 347 345 345 347 350 353 351 346 346 353 356 351
317 354 22 24 347 354 333 324 350 34 25 3 9 15 13 86 130 131 124 117 113 106 99 102 113 125 129 127 123 120 120 127 134 134 136 139 136 132 126 120 116 112 108 103 97 91 87 82 66 38 19 14 13 10 4 359 354 352 352 350 345 344 345 343 339 336 336 338 339 340 344 345 345 346 346 344 340 338 337 343 348 346 341 342 345 345
24 302 321 79 29 325 267 287 339 77 92 328 350 10 7 7 80 126 130 130 131 130 119 109 114 127 135 139 137 128 125 142 142 130 127 130 128 124 122 119 114 111 109 105 97 91 88 82 71 61 47 29 13 2 355 349 346 344 344 342 337 338 342 343 341 337 334 336 339 339 338 340 341 342 343 343 341 338 332 329 333 337 337 334 330 327
170 199 168 134 166 219 221 234 226 119 154 278 330 3 10 22 44 48 48 157 167 161 147 136 133 133 137 144 144 142 145 154 144 130 123 128 131 128 125 123 121 118 117 113 105 97 90 83 74 59 41 22 8 358 348 342 344 348 348 346 343 340 339 339 341 341 339 339 341 340 337 336 336 337 339 339 339 340 337 332 328 327 329 330 326 320